ASA2425 KSFO-KPAE

Flight info

Callsign ASA2425
Flight time 1h 39m
Altitude 36000
Route TRUKN2 DEDHD RBL LMT RENAA MAHKE OLM OLM2
Aircraft B739/M-SDE2E3FGHIRWXY/LB1

Departure

Time 2026-05-08 23:34
Airport San Francisco International Airport (KSFO)

Arrival

Time 2026-05-09 01:13
Airport Seattle Paine Field International Airport (KPAE)
Time Latitude Longitude Altitude Speed Heading
2026-05-08 23:15 37.61861 -122.38168 23 ft 0 kts 166°
2026-05-08 23:27 37.61865 -122.38170 21 ft 3 kts 166°
2026-05-08 23:27 37.61883 -122.38175 22 ft 3 kts 166°
2026-05-08 23:27 37.61901 -122.38180 22 ft 3 kts 166°
2026-05-08 23:28 37.61919 -122.38186 22 ft 3 kts 166°
2026-05-08 23:28 37.61934 -122.38195 22 ft 3 kts 116°
2026-05-08 23:28 37.61937 -122.38206 23 ft 0 kts 90°
2026-05-08 23:29 37.61937 -122.38196 22 ft 5 kts 89°
2026-05-08 23:29 37.61920 -122.38096 22 ft 18 kts 112°
2026-05-08 23:29 37.61845 -122.37901 21 ft 30 kts 116°
2026-05-08 23:29 37.61760 -122.37656 21 ft 30 kts 113°
2026-05-08 23:30 37.61679 -122.37420 21 ft 28 kts 117°
2026-05-08 23:30 37.61594 -122.37207 21 ft 27 kts 117°
2026-05-08 23:30 37.61511 -122.37004 22 ft 25 kts 118°
2026-05-08 23:30 37.61429 -122.36818 22 ft 23 kts 119°
2026-05-08 23:31 37.61333 -122.36696 23 ft 20 kts 138°
2026-05-08 23:31 37.61268 -122.36544 21 ft 19 kts 117°
2026-05-08 23:31 37.61207 -122.36395 21 ft 19 kts 117°
2026-05-08 23:31 37.61147 -122.36254 21 ft 18 kts 118°
2026-05-08 23:32 37.61096 -122.36133 21 ft 17 kts 118°
2026-05-08 23:32 37.61053 -122.35991 21 ft 17 kts 85°
2026-05-08 23:32 37.61126 -122.35892 23 ft 16 kts 14°
2026-05-08 23:32 37.61216 -122.35956 21 ft 16 kts 302°
2026-05-08 23:33 37.61275 -122.36091 21 ft 33 kts 297°
2026-05-08 23:33 37.61508 -122.36650 21 ft 108 kts 297°
2026-05-08 23:33 37.61948 -122.37735 57 ft 164 kts 298°
2026-05-08 23:33 37.62590 -122.39098 462 ft 189 kts 300°
2026-05-08 23:34 37.63366 -122.40470 1360 ft 190 kts 319°
2026-05-08 23:34 37.64556 -122.40921 2444 ft 185 kts
2026-05-08 23:34 37.65702 -122.40118 2879 ft 209 kts 49°
2026-05-08 23:34 37.66365 -122.38321 3111 ft 239 kts 66°
2026-05-08 23:35 37.66963 -122.36243 3383 ft 264 kts 66°
2026-05-08 23:35 37.67626 -122.34024 3927 ft 276 kts 68°
2026-05-08 23:35 37.68327 -122.31794 4785 ft 274 kts 66°
2026-05-08 23:35 37.69039 -122.29606 5591 ft 275 kts 66°
2026-05-08 23:36 37.69789 -122.27343 6249 ft 282 kts 66°
2026-05-08 23:36 37.70556 -122.25048 6988 ft 284 kts 66°
2026-05-08 23:36 37.71478 -122.22839 7617 ft 288 kts 47°
2026-05-08 23:36 37.73035 -122.21421 8286 ft 285 kts 20°
2026-05-08 23:37 37.74944 -122.20800 8996 ft 286 kts
2026-05-08 23:37 37.76931 -122.20455 9639 ft 291 kts
2026-05-08 23:37 37.78953 -122.20157 10296 ft 296 kts
2026-05-08 23:37 37.81079 -122.19851 10499 ft 318 kts
2026-05-08 23:38 37.83347 -122.19518 10657 ft 339 kts
2026-05-08 23:38 37.85758 -122.19154 10786 ft 358 kts
2026-05-08 23:38 37.88300 -122.18755 10919 ft 376 kts
2026-05-08 23:38 37.90911 -122.18338 11152 ft 387 kts
2026-05-08 23:39 37.93611 -122.17894 11603 ft 392 kts
2026-05-08 23:39 37.96327 -122.17447 12126 ft 394 kts
2026-05-08 23:39 37.99062 -122.16994 12671 ft 396 kts
2026-05-08 23:39 38.01793 -122.16544 13185 ft 398 kts
2026-05-08 23:40 38.04537 -122.16098 13653 ft 402 kts
2026-05-08 23:40 38.07337 -122.15639 14095 ft 405 kts
2026-05-08 23:40 38.10157 -122.15175 14516 ft 408 kts
2026-05-08 23:40 38.12956 -122.14711 14954 ft 411 kts
2026-05-08 23:41 38.15826 -122.14238 15373 ft 413 kts
2026-05-08 23:41 38.18658 -122.13772 15780 ft 416 kts
2026-05-08 23:41 38.21549 -122.13295 16205 ft 419 kts
2026-05-08 23:41 38.24435 -122.12818 16608 ft 421 kts
2026-05-08 23:42 38.27367 -122.12337 16973 ft 425 kts
2026-05-08 23:42 38.30284 -122.11855 17346 ft 427 kts
2026-05-08 23:42 38.33251 -122.11365 17769 ft 429 kts
2026-05-08 23:42 38.36247 -122.11166 18112 ft 429 kts 356°
2026-05-08 23:43 38.39205 -122.11312 18492 ft 430 kts 353°
2026-05-08 23:43 38.42231 -122.11593 18856 ft 432 kts 352°
2026-05-08 23:43 38.45198 -122.11897 19236 ft 433 kts 353°
2026-05-08 23:43 38.48236 -122.12191 19575 ft 435 kts 353°
2026-05-08 23:44 38.51247 -122.12455 19895 ft 438 kts 353°
2026-05-08 23:44 38.54294 -122.12698 20234 ft 441 kts 353°
2026-05-08 23:44 38.57387 -122.12928 20579 ft 443 kts 353°
2026-05-08 23:44 38.60466 -122.13146 20909 ft 445 kts 353°
2026-05-08 23:45 38.63560 -122.13359 21232 ft 447 kts 354°
2026-05-08 23:45 38.66646 -122.13573 21623 ft 448 kts 353°
2026-05-08 23:45 38.69794 -122.13788 21880 ft 451 kts 353°
2026-05-08 23:45 38.72931 -122.14001 22163 ft 454 kts 353°
2026-05-08 23:46 38.76084 -122.14214 22457 ft 456 kts 353°
2026-05-08 23:46 38.79248 -122.14429 22781 ft 458 kts 353°
2026-05-08 23:46 38.82452 -122.14648 23099 ft 460 kts 353°
2026-05-08 23:46 38.85637 -122.14868 23375 ft 462 kts 353°
2026-05-08 23:47 38.88888 -122.15085 23650 ft 463 kts 353°
2026-05-08 23:47 38.92082 -122.15301 23864 ft 465 kts 352°
2026-05-08 23:47 38.95306 -122.15528 24092 ft 466 kts 352°
2026-05-08 23:47 38.98572 -122.15758 24359 ft 467 kts 352°
2026-05-08 23:48 39.01793 -122.15985 24624 ft 467 kts 352°
2026-05-08 23:48 39.05030 -122.16211 24866 ft 468 kts 352°
2026-05-08 23:48 39.08326 -122.16440 25113 ft 469 kts 352°
2026-05-08 23:48 39.11578 -122.16667 25358 ft 471 kts 352°
2026-05-08 23:49 39.14833 -122.16893 25602 ft 472 kts 352°
2026-05-08 23:49 39.18128 -122.17122 25843 ft 473 kts 352°
2026-05-08 23:49 39.21405 -122.17350 26079 ft 474 kts 352°
2026-05-08 23:49 39.24693 -122.17580 26335 ft 474 kts 351°
2026-05-08 23:50 39.27969 -122.17808 26681 ft 472 kts 351°
2026-05-08 23:50 39.31267 -122.18036 27120 ft 469 kts 351°
2026-05-08 23:50 39.34489 -122.18259 27524 ft 466 kts 351°
2026-05-08 23:50 39.37712 -122.18484 27899 ft 465 kts 351°
2026-05-08 23:51 39.40967 -122.18713 28264 ft 464 kts 350°
2026-05-08 23:51 39.44166 -122.18937 28659 ft 462 kts 350°
2026-05-08 23:51 39.47357 -122.19161 29095 ft 460 kts 350°
2026-05-08 23:51 39.50575 -122.19387 29557 ft 458 kts 350°
2026-05-08 23:52 39.53741 -122.19610 29975 ft 456 kts 349°
2026-05-08 23:52 39.56877 -122.19831 30351 ft 455 kts 349°
2026-05-08 23:52 39.60032 -122.20053 30703 ft 453 kts 349°
2026-05-08 23:52 39.63181 -122.20276 31034 ft 452 kts 349°
2026-05-08 23:53 39.66305 -122.20497 31357 ft 451 kts 349°
2026-05-08 23:53 39.69464 -122.20721 31718 ft 450 kts 349°
2026-05-08 23:53 39.72578 -122.20941 32050 ft 449 kts 348°
2026-05-08 23:53 39.75691 -122.21162 32369 ft 448 kts 348°
2026-05-08 23:54 39.78799 -122.21382 32680 ft 447 kts 348°
2026-05-08 23:54 39.81912 -122.21603 33004 ft 446 kts 348°
2026-05-08 23:54 39.84980 -122.21821 33310 ft 445 kts 348°
2026-05-08 23:55 39.91163 -122.22261 33887 ft 444 kts 347°
2026-05-08 23:55 39.94235 -122.22480 34154 ft 442 kts 347°
2026-05-08 23:55 39.97311 -122.22699 34376 ft 442 kts 347°
2026-05-08 23:55 40.00370 -122.22918 34566 ft 442 kts 347°
2026-05-08 23:56 40.03435 -122.23137 34773 ft 442 kts 347°
2026-05-08 23:56 40.06519 -122.23358 34987 ft 442 kts 347°
2026-05-08 23:56 40.09596 -122.23496 35206 ft 446 kts 352°
2026-05-08 23:56 40.12700 -122.23094 35372 ft 457 kts
2026-05-08 23:57 40.15857 -122.22344 35577 ft 458 kts
2026-05-08 23:57 40.18975 -122.21555 35781 ft 458 kts
2026-05-08 23:57 40.21059 -122.21021 35895 ft 458 kts
2026-05-08 23:57 40.24174 -122.20228 36040 ft 459 kts
2026-05-08 23:58 40.28369 -122.19182 36019 ft 460 kts
2026-05-08 23:58 40.33589 -122.17903 36013 ft 458 kts
2026-05-08 23:59 40.39843 -122.16387 36027 ft 455 kts
2026-05-08 23:59 40.46071 -122.14882 36027 ft 454 kts
2026-05-09 00:00 40.52265 -122.13383 36017 ft 453 kts
2026-05-09 00:00 40.58457 -122.11881 36021 ft 453 kts
2026-05-09 00:01 40.64639 -122.10378 36026 ft 454 kts
2026-05-09 00:01 40.70887 -122.08856 36024 ft 456 kts
2026-05-09 00:02 40.77152 -122.07330 36028 ft 459 kts
2026-05-09 00:02 40.83415 -122.05796 36021 ft 460 kts
2026-05-09 00:03 40.89697 -122.04309 36064 ft 456 kts 360°
2026-05-09 00:03 40.95961 -122.02798 36062 ft 459 kts
2026-05-09 00:04 41.02246 -122.01194 36051 ft 459 kts
2026-05-09 00:04 41.08513 -121.99624 36080 ft 459 kts
2026-05-09 00:05 41.14778 -121.98064 36077 ft 459 kts
2026-05-09 00:05 41.21084 -121.96501 36071 ft 461 kts
2026-05-09 00:06 41.27395 -121.94941 36084 ft 461 kts
2026-05-09 00:06 41.33684 -121.93379 36105 ft 461 kts
2026-05-09 00:07 41.40010 -121.91802 36110 ft 461 kts
2026-05-09 00:07 41.46303 -121.90230 36095 ft 461 kts
2026-05-09 00:08 41.52608 -121.88652 36126 ft 461 kts
2026-05-09 00:08 41.58893 -121.87077 36110 ft 461 kts
2026-05-09 00:09 41.65215 -121.85491 36103 ft 461 kts
2026-05-09 00:09 41.71535 -121.83901 36131 ft 460 kts
2026-05-09 00:10 41.77832 -121.82313 36117 ft 461 kts
2026-05-09 00:10 41.84114 -121.80728 36118 ft 460 kts
2026-05-09 00:11 41.90415 -121.79133 36139 ft 460 kts
2026-05-09 00:11 41.96684 -121.77542 36154 ft 461 kts
2026-05-09 00:12 42.03007 -121.75934 36168 ft 461 kts
2026-05-09 00:12 42.09315 -121.74328 36176 ft 461 kts
2026-05-09 00:13 42.15527 -121.73781 36179 ft 438 kts 343°
2026-05-09 00:13 42.21285 -121.75750 36114 ft 419 kts 330°
2026-05-09 00:14 42.26700 -121.78628 36132 ft 421 kts 330°
2026-05-09 00:14 42.32165 -121.81536 36133 ft 423 kts 330°
2026-05-09 00:15 42.37667 -121.84434 36104 ft 425 kts 330°
2026-05-09 00:15 42.43186 -121.87318 36109 ft 426 kts 330°
2026-05-09 00:16 42.48703 -121.90203 36126 ft 426 kts 330°
2026-05-09 00:16 42.54255 -121.93115 36131 ft 426 kts 330°
2026-05-09 00:17 42.59752 -121.96004 36119 ft 425 kts 330°
2026-05-09 00:17 42.65252 -121.98900 36124 ft 424 kts 330°
2026-05-09 00:18 42.70760 -122.01806 36138 ft 424 kts 330°
2026-05-09 00:18 42.76271 -122.04720 36131 ft 423 kts 330°
2026-05-09 00:19 42.81739 -122.07616 36138 ft 423 kts 330°
2026-05-09 00:19 42.87235 -122.10480 36154 ft 421 kts 331°
2026-05-09 00:20 42.92673 -122.13354 36147 ft 421 kts 330°
2026-05-09 00:20 42.98150 -122.16321 36160 ft 423 kts 330°
2026-05-09 00:21 43.03473 -122.19184 36161 ft 426 kts 330°
2026-05-09 00:21 43.05788 -122.20426 36152 ft 428 kts 330°
2026-05-09 00:22 43.09697 -122.22518 36155 ft 430 kts 330°
2026-05-09 00:22 43.14648 -122.25171 36151 ft 432 kts 331°
2026-05-09 00:23 43.20238 -122.28169 36125 ft 431 kts 331°
2026-05-09 00:23 43.25813 -122.31166 36173 ft 430 kts 331°
2026-05-09 00:24 43.31405 -122.34178 36169 ft 430 kts 330°
2026-05-09 00:24 43.36984 -122.37190 36176 ft 430 kts 330°
2026-05-09 00:25 43.42538 -122.40172 36186 ft 429 kts 333°
2026-05-09 00:25 43.48474 -122.42054 36181 ft 446 kts 345°
2026-05-09 00:26 43.54617 -122.43079 36187 ft 448 kts 345°
2026-05-09 00:26 43.60832 -122.44097 36178 ft 450 kts 345°
2026-05-09 00:27 43.67026 -122.45164 36181 ft 446 kts 345°
2026-05-09 00:27 43.73124 -122.46244 36200 ft 442 kts 345°
2026-05-09 00:28 43.79221 -122.47338 36218 ft 439 kts 345°
2026-05-09 00:28 43.85319 -122.48431 36208 ft 443 kts 345°
2026-05-09 00:29 43.91434 -122.49544 36210 ft 448 kts 345°
2026-05-09 00:29 43.97673 -122.50674 36216 ft 451 kts 345°
2026-05-09 00:30 44.03899 -122.51793 36219 ft 453 kts 345°
2026-05-09 00:30 44.10177 -122.52928 36207 ft 454 kts 345°
2026-05-09 00:31 44.16444 -122.54067 36202 ft 452 kts 345°
2026-05-09 00:31 44.22645 -122.55197 36220 ft 451 kts 345°
2026-05-09 00:32 44.28852 -122.56327 36205 ft 450 kts 345°
2026-05-09 00:32 44.35056 -122.57458 36216 ft 447 kts 345°
2026-05-09 00:33 44.41189 -122.58580 36213 ft 446 kts 345°
2026-05-09 00:33 44.47327 -122.59708 36218 ft 445 kts 345°
2026-05-09 00:34 44.53469 -122.60838 36207 ft 445 kts 345°
2026-05-09 00:34 44.59606 -122.61969 36214 ft 445 kts 345°
2026-05-09 00:35 44.65724 -122.63099 36217 ft 446 kts 346°
2026-05-09 00:35 44.71898 -122.64243 36214 ft 446 kts 346°
2026-05-09 00:36 44.78052 -122.65384 36221 ft 447 kts 346°
2026-05-09 00:36 44.84171 -122.66521 36240 ft 447 kts 346°
2026-05-09 00:37 44.90334 -122.67669 36223 ft 449 kts 346°
2026-05-09 00:37 44.96503 -122.68820 36221 ft 449 kts 346°
2026-05-09 00:38 45.02677 -122.69974 36236 ft 450 kts 346°
2026-05-09 00:38 45.08922 -122.71145 36238 ft 451 kts 346°
2026-05-09 00:39 45.15126 -122.72311 36233 ft 451 kts 346°
2026-05-09 00:39 45.21346 -122.73481 36232 ft 451 kts 346°
2026-05-09 00:40 45.27551 -122.74652 36251 ft 451 kts 346°
2026-05-09 00:40 45.33773 -122.75828 36232 ft 451 kts 346°
2026-05-09 00:41 45.43122 -122.77601 36227 ft 451 kts 346°
2026-05-09 00:41 45.49308 -122.78777 36248 ft 450 kts 347°
2026-05-09 00:42 45.55539 -122.79965 36236 ft 450 kts 347°
2026-05-09 00:42 45.61745 -122.81151 36223 ft 450 kts 347°
2026-05-09 00:43 45.67933 -122.82336 36211 ft 450 kts 347°
2026-05-09 00:43 45.74125 -122.83523 36231 ft 450 kts 347°
2026-05-09 00:44 45.80392 -122.84399 36222 ft 453 kts 352°
2026-05-09 00:44 45.86672 -122.84658 36221 ft 454 kts 353°
2026-05-09 00:45 45.92949 -122.84868 36243 ft 453 kts 353°
2026-05-09 00:45 45.99263 -122.85144 36249 ft 453 kts 352°
2026-05-09 00:46 46.05560 -122.85457 36251 ft 453 kts 352°
2026-05-09 00:46 46.11842 -122.85780 36246 ft 453 kts 352°
2026-05-09 00:47 46.18122 -122.86101 36230 ft 444 kts 352°
2026-05-09 00:47 46.21174 -122.86248 36231 ft 428 kts 352°
2026-05-09 00:47 46.24083 -122.86388 36219 ft 414 kts 352°
2026-05-09 00:48 46.29784 -122.86682 36262 ft 411 kts 352°
2026-05-09 00:48 46.35558 -122.86996 36265 ft 419 kts 352°
2026-05-09 00:49 46.41434 -122.87306 36252 ft 425 kts 352°
2026-05-09 00:49 46.47343 -122.87607 36246 ft 425 kts 352°
2026-05-09 00:50 46.53246 -122.87909 36241 ft 425 kts 352°
2026-05-09 00:50 46.58188 -122.88164 36239 ft 425 kts 352°
2026-05-09 00:51 46.64056 -122.88468 36265 ft 424 kts 352°
2026-05-09 00:51 46.69976 -122.88775 36226 ft 423 kts 352°
2026-05-09 00:52 46.72956 -122.88936 34978 ft 438 kts 352°
2026-05-09 00:52 46.76026 -122.89100 33882 ft 441 kts 352°
2026-05-09 00:52 46.79083 -122.89259 32582 ft 445 kts 352°
2026-05-09 00:52 46.82184 -122.89419 31347 ft 447 kts 352°
2026-05-09 00:53 46.85302 -122.89578 30129 ft 447 kts 352°
2026-05-09 00:53 46.88370 -122.89737 28818 ft 446 kts 353°
2026-05-09 00:53 46.91475 -122.89898 27514 ft 445 kts 353°
2026-05-09 00:53 46.94567 -122.89914 26263 ft 448 kts
2026-05-09 00:54 46.97619 -122.88735 25073 ft 459 kts 18°
2026-05-09 00:54 47.00401 -122.86374 23948 ft 469 kts 33°
2026-05-09 00:54 47.02848 -122.83182 22680 ft 470 kts 37°
2026-05-09 00:54 47.05243 -122.79941 21386 ft 466 kts 37°
2026-05-09 00:55 47.07640 -122.76795 20167 ft 462 kts 36°
2026-05-09 00:55 47.10055 -122.73703 18991 ft 457 kts 35°
2026-05-09 00:55 47.12444 -122.70667 17785 ft 452 kts 36°
2026-05-09 00:55 47.14798 -122.67670 17072 ft 437 kts 36°
2026-05-09 00:56 47.17014 -122.64829 16907 ft 410 kts 35°
2026-05-09 00:56 47.19098 -122.62150 16757 ft 386 kts 34°
2026-05-09 00:56 47.21093 -122.59587 15978 ft 381 kts 35°
2026-05-09 00:56 47.23104 -122.57015 15015 ft 384 kts 36°
2026-05-09 00:57 47.25119 -122.54429 14076 ft 385 kts 36°
2026-05-09 00:57 47.27114 -122.51859 13057 ft 386 kts 37°
2026-05-09 00:57 47.29129 -122.49258 12052 ft 385 kts 37°
2026-05-09 00:57 47.31204 -122.46796 11322 ft 375 kts 27°
2026-05-09 00:58 47.33450 -122.45126 11086 ft 351 kts 17°
2026-05-09 00:58 47.35723 -122.44091 10774 ft 332 kts
2026-05-09 00:58 47.37935 -122.43611 10500 ft 314 kts
2026-05-09 00:58 47.40061 -122.43225 10246 ft 302 kts
2026-05-09 00:59 47.42113 -122.42857 9961 ft 290 kts
2026-05-09 00:59 47.44066 -122.42504 9812 ft 279 kts
2026-05-09 00:59 47.45999 -122.42156 9471 ft 278 kts
2026-05-09 00:59 47.47908 -122.41809 9209 ft 274 kts
2026-05-09 01:00 47.49792 -122.41463 8943 ft 271 kts
2026-05-09 01:00 47.51630 -122.41125 8698 ft 269 kts
2026-05-09 01:00 47.53475 -122.40784 8476 ft 267 kts
2026-05-09 01:00 47.55321 -122.40441 8244 ft 267 kts
2026-05-09 01:01 47.57180 -122.40100 7999 ft 270 kts
2026-05-09 01:01 47.59050 -122.39750 7750 ft 270 kts
2026-05-09 01:01 47.60913 -122.39398 7488 ft 269 kts
2026-05-09 01:01 47.62761 -122.39049 7251 ft 266 kts
2026-05-09 01:02 47.64583 -122.38705 7014 ft 263 kts
2026-05-09 01:02 47.66397 -122.38364 6787 ft 260 kts
2026-05-09 01:02 47.68190 -122.38026 6566 ft 259 kts
2026-05-09 01:02 47.69980 -122.37690 6305 ft 259 kts
2026-05-09 01:03 47.71740 -122.37356 6085 ft 258 kts
2026-05-09 01:03 47.73434 -122.37039 5831 ft 258 kts
2026-05-09 01:03 47.75250 -122.36694 5610 ft 259 kts
2026-05-09 01:03 47.77044 -122.36357 5385 ft 262 kts
2026-05-09 01:04 47.78860 -122.36014 5147 ft 263 kts
2026-05-09 01:04 47.80671 -122.35671 4972 ft 260 kts
2026-05-09 01:04 47.82409 -122.35341 4882 ft 248 kts
2026-05-09 01:04 47.84074 -122.35026 4764 ft 235 kts
2026-05-09 01:05 47.85657 -122.34726 4650 ft 223 kts
2026-05-09 01:05 47.87158 -122.34440 4432 ft 215 kts
2026-05-09 01:05 47.90098 -122.33883 3878 ft 205 kts
2026-05-09 01:06 47.91497 -122.33603 3681 ft 203 kts 12°
2026-05-09 01:06 47.92698 -122.32601 3472 ft 200 kts 57°
2026-05-09 01:06 47.93152 -122.30680 3373 ft 199 kts 79°
2026-05-09 01:06 47.93742 -122.28793 3165 ft 207 kts 44°
2026-05-09 01:07 47.94976 -122.27837 3180 ft 199 kts
2026-05-09 01:07 47.96336 -122.27518 3184 ft 202 kts 20°
2026-05-09 01:07 47.97514 -122.26391 3203 ft 203 kts 38°
2026-05-09 01:07 47.98663 -122.25112 3205 ft 208 kts 37°
2026-05-09 01:08 47.99837 -122.23841 3214 ft 208 kts 36°
2026-05-09 01:08 48.00999 -122.22593 3217 ft 203 kts 36°
2026-05-09 01:08 48.02260 -122.21818 3171 ft 192 kts
2026-05-09 01:08 48.03500 -122.22350 3183 ft 187 kts 319°
2026-05-09 01:09 48.04194 -122.23892 3198 ft 177 kts 278°
2026-05-09 01:09 48.04047 -122.25686 2965 ft 183 kts 241°
2026-05-09 01:09 48.03222 -122.27085 2837 ft 178 kts 224°
2026-05-09 01:09 48.02318 -122.28347 2666 ft 183 kts 216°
2026-05-09 01:10 48.01144 -122.28840 2423 ft 171 kts 174°
2026-05-09 01:10 48.00003 -122.28727 2184 ft 159 kts 181°
2026-05-09 01:10 47.98921 -122.28731 1992 ft 154 kts 180°
2026-05-09 01:10 47.97873 -122.28713 1780 ft 149 kts 179°
2026-05-09 01:11 47.96830 -122.28690 1572 ft 150 kts 179°
2026-05-09 01:11 47.95790 -122.28666 1347 ft 148 kts 179°
2026-05-09 01:11 47.94781 -122.28644 1142 ft 147 kts 179°
2026-05-09 01:11 47.93749 -122.28621 941 ft 149 kts 179°
2026-05-09 01:12 47.92714 -122.28598 735 ft 148 kts 179°
2026-05-09 01:12 47.91677 -122.28575 573 ft 146 kts 179°
2026-05-09 01:12 47.90777 -122.28552 566 ft 108 kts 179°
2026-05-09 01:12 47.90182 -122.28536 568 ft 57 kts 179°
2026-05-09 01:13 47.89848 -122.28527 575 ft 23 kts 178°
2026-05-09 01:13 47.89794 -122.28388 572 ft 17 kts 86°
2026-05-09 01:13 47.89876 -122.28307 568 ft 16 kts
2026-05-09 01:13 47.90014 -122.28305 571 ft 22 kts
2026-05-09 01:14 47.90166 -122.28318 569 ft 22 kts 355°
2026-05-09 01:14 47.90218 -122.28224 566 ft 13 kts 91°
2026-05-09 01:14 47.90215 -122.28091 566 ft 13 kts 91°
2026-05-09 01:14 47.90217 -122.27962 566 ft 12 kts 88°
2026-05-09 01:15 47.90220 -122.27836 566 ft 12 kts 88°
2026-05-09 01:15 47.90218 -122.27713 566 ft 12 kts 92°
2026-05-09 01:15 47.90217 -122.27593 566 ft 11 kts 89°
2026-05-09 01:15 47.90219 -122.27464 566 ft 14 kts 89°
2026-05-09 01:16 47.90221 -122.27293 573 ft 12 kts 89°
2026-05-09 01:16 47.90261 -122.27178 569 ft 15 kts 15°
2026-05-09 01:16 47.90375 -122.27169 574 ft 18 kts 357°
2026-05-09 01:17 47.90635 -122.27210 570 ft 15 kts 300°
2026-05-09 01:17 47.90565 -122.27288 570 ft 17 kts 182°
2026-05-09 01:17 47.90505 -122.27414 570 ft 3 kts 208°
2026-05-09 01:18 47.90509 -122.27411 571 ft 3 kts 207°
2026-05-09 01:18 47.90522 -122.27398 568 ft 1 kts 262°
2026-05-09 01:18 47.90520 -122.27415 569 ft 3 kts 262°
2026-05-09 01:18 47.90517 -122.27446 566 ft 0 kts 255°
2026-05-09 01:19 47.90518 -122.27443 570 ft 2 kts 256°
2026-05-09 01:19 47.90519 -122.27423 568 ft 0 kts 262°
2026-05-09 01:19 47.90521 -122.27443 570 ft 5 kts 274°
2026-05-09 01:19 47.90519 -122.27547 571 ft 15 kts 268°
2026-05-09 01:20 47.90519 -122.27741 569 ft 17 kts 271°
2026-05-09 01:20 47.90585 -122.27891 572 ft 18 kts 315°
2026-05-09 01:20 47.90670 -122.28018 566 ft 17 kts 315°
2026-05-09 01:20 47.90760 -122.28110 566 ft 16 kts 18°
2026-05-09 01:21 47.90828 -122.27981 570 ft 16 kts 63°
2026-05-09 01:21 47.90837 -122.27952 566 ft 0 kts 65°